Погода в Млинях

Хорватия     42°37′31″N   18°11′59″E
темп.,
°C
ветер,
м/с
пор.,
м/с
влажн.,
%
обл.,
%
осадки,
мм/ч
давл.,
гПа
погр.,
м
11 мая, вт
вт1123:00+14св22740 0.0 101715
02:00+13св22760 0.0 101714
05:00+12св22754 0.0 101613
08:00+17всв116286 0.0 1016156
11:00+21ююз225387 0.0 1015631
14:00+21ююз22565 0.0 1014678
17:00+20ююз22580 0.0 1012420
20:00+15св11770 0.0 101211
12 мая, ср
ср1223:00+13св117987 0.0 101211
02:00+13св227998 0.1 101126
05:00+13в1172100 0.0 101030
08:00+15юв2472100 0.1 1009410
11:00+17ю56704 1.3 10091058
14:00+17ююз66650 1.8 1009961
17:00+16ююз33729 0.3 1009783
20:00+12юв11852 0.5 100912
13 мая, чт
чт1323:00+10в118226 0.0 101111
02:00+10вюв11875 0.1 101027
05:00+10в228688 0.0 100944
08:00+13ююв367654 0.1 1009526
11:00+15ю796790 0.4 10081171
14:00+13ю798068 1.7 10091075
17:00+14ю577856 1.3 1009767
20:00+10юв229338 2.3 101049
14 мая, пт
пт1423:00+9всв229352 2.2 101046
02:00+9всв229310 4.5 101032
05:00+10вюв239158 0.5 101068
08:00+11ююв478875 1.8 1012553
11:00+15ююз711679 0.3 10131548
14:00+15ююз67645 0.3 10131254
17:00+15ю446178 0.0 1013864
20:00+11в1183100 0.0 101321
15 мая, сб
сб1523:00+11св2276100 0.1 101422
02:00+10всв2293100 2.3 101269
05:00+10в2392100 2.9 101186
08:00+11юв1294100 5.0 1010151
11:00+12ю1288100 1.6 1010263
14:00+11ссз0194100 7.1 1010185
17:00+11ссв1289100 2.0 1011112
20:00+10св118795 2.1 101140